This is the latest recevied weather packets stored in our database for station/object SQ6ELQ-11. If no packets are shown the sender has not sent any weather packets the latest 10 day(s).
| Time | Temp. | Humidity | Pressure | Rain* | Wind** | Luminosity | Snow |
|---|---|---|---|---|---|---|---|
| 1778186327 | 6.67° C | 79% | 1015.5 hPa | 0 mm | - | - | - |
| 1778185151 | 6.67° C | 80% | 1015.4 hPa | 0 mm | - | - | - |
| 1778184127 | 6.67° C | 80% | 1015.3 hPa | 0 mm | - | - | - |
| 1778182977 | 7.22° C | 79% | 1015.4 hPa | 0 mm | - | - | - |
| 1778181966 | 7.22° C | 80% | 1015.3 hPa | 0 mm | - | - | - |
| 1778180911 | 7.22° C | 80% | 1015.1 hPa | 0 mm | - | - | - |
| 1778179768 | 7.22° C | 78% | 1014.9 hPa | 0 mm | - | - | - |
| 1778178721 | 7.22° C | 79% | 1014.6 hPa | 0 mm | - | - | - |
| 1778177597 | 7.22° C | 80% | 1014.5 hPa | 0 mm | - | - | - |
| 1778176496 | 7.22° C | 80% | 1014.5 hPa | 0 mm | - | - | - |
| 1778175433 | 7.22° C | 80% | 1014.3 hPa | 0 mm | - | - | - |
| 1778174371 | 7.22° C | 80% | 1013.9 hPa | 0 mm | - | - | - |
| 1778173314 | 7.22° C | 81% | 1013.7 hPa | 0 mm | - | - | - |
| 1778172176 | 7.22° C | 80% | 1013.6 hPa | 0 mm | - | - | - |
| 1778171095 | 7.78° C | 77% | 1013.4 hPa | 0 mm | - | - | - |
| 1778170011 | 7.78° C | 77% | 1013.3 hPa | 0 mm | - | - | - |
| 1778168955 | 8.33° C | 75% | 1013.2 hPa | 0 mm | - | - | - |
| 1778167981 | 8.89° C | 73% | 1013.2 hPa | 0 mm | - | - | - |
| 1778166915 | 8.89° C | 72% | 1013 hPa | 0 mm | - | - | - |
| 1778165850 | 8.89° C | 70% | 1013.1 hPa | 0 mm | - | - | - |
| 1778164730 | 8.89° C | 72% | 1012.9 hPa | 0 mm | - | - | - |
| 1778163687 | 8.89° C | 73% | 1013 hPa | 0 mm | - | - | - |
| 1778162622 | 8.33° C | 74% | 1013 hPa | 0 mm | - | - | - |
| 1778161512 | 8.89° C | 72% | 1013 hPa | 0 mm | - | - | - |
| 1778160432 | 9.44° C | 72% | 1012.9 hPa | 0 mm | - | - | - |
* Rain latest hour (hover to see other rain measurements)
** Current wind speed in m/s (hover to see current wind gust speed)